Terminal Aerodrome Forecast
Issued by NWS Omaha/Valley, NE

Home | Current Version | Previous Version | Graphics & Text | Print | Product List | Glossary On
Versions: 1 2 3 4 5 6 7 8 9 10 11 12 13 14 15 16 17 18 19 20 21 22 23 24 25 26 27 28 29 30 31 32 33 34 35 36 37 38 39 40 41 42
000
FTUS43 KOAX 271721
TAFOFK
TAF
KOFK 271721Z 2718/2818 14015KT P6SM BKN010
      TEMPO 2718/2722 4SM -RA BKN007
     FM272200 14008KT P6SM OVC035
     FM280400 14010KT 5SM -RA BR OVC025=

USA.gov is the U.S. government's official web portal to all federal, state and local government web resources and services.